| time (UTC) | temp F | wind direction | speed MPH | gust MPH | rain 1hr in | rain 24hr in | rain mn in | humidity % | barometer mb |
| 20260509054032 | 40 | 167 | 1.0 | 3.0 | 0.00 | 0.04 | 0.00 | 62 | 1010.9 |
| 20260509053531 | 39 | 174 | 1.0 | 3.0 | 0.00 | 0.04 | 0.00 | 62 | 1010.9 |
| 20260509053033 | 39 | 171 | 1.0 | 3.0 | 0.00 | 0.04 | 0.00 | 63 | 1011.0 |
| 20260509052530 | 39 | 166 | 0.0 | 2.0 | 0.00 | 0.04 | 0.00 | 63 | 1011.2 |
| 20260509052027 | 39 | 164 | 0.0 | 0.0 | 0.00 | 0.04 | 0.00 | 63 | 1011.2 |
| 20260509051527 | 39 | 164 | 0.0 | 0.0 | 0.00 | 0.04 | 0.00 | 63 | 1011.3 |
| 20260509051025 | 40 | 164 | 0.0 | 0.0 | 0.00 | 0.04 | 0.00 | 63 | 1011.3 |
| 20260509050524 | 40 | 164 | 0.0 | 0.0 | 0.00 | 0.04 | 0.00 | 62 | 1011.2 |
| 20260509050024 | 40 | 164 | 0.0 | 0.0 | 0.00 | 0.04 | 0.00 | 63 | 1011.3 |
| 20260509045523 | 40 | 164 | 0.0 | 1.0 | 0.00 | 0.04 | 0.00 | 63 | 1011.4 |
| 20260509045023 | 40 | 164 | 0.0 | 2.0 | 0.00 | 0.04 | 0.00 | 63 | 1011.4 |
| 20260509044532 | 40 | 164 | 0.0 | 2.0 | 0.00 | 0.04 | 0.00 | 63 | 1011.4 |
| 20260509044021 | 40 | 144 | 0.0 | 1.0 | 0.00 | 0.04 | 0.00 | 64 | 1011.4 |
| 20260509043521 | 40 | 144 | 0.0 | 0.0 | 0.00 | 0.04 | 0.00 | 64 | 1011.5 |
| 20260509043030 | 40 | 144 | 0.0 | 0.0 | 0.00 | 0.04 | 0.00 | 63 | 1011.5 |
| 20260509042521 | 40 | 144 | 0.0 | 0.0 | 0.00 | 0.04 | 0.00 | 64 | 1011.5 |
| 20260509042020 | 40 | 144 | 0.0 | 0.0 | 0.00 | 0.04 | 0.00 | 63 | 1011.6 |
| 20260509041520 | 41 | 144 | 0.0 | 0.0 | 0.00 | 0.04 | 0.00 | 62 | 1011.6 |
| 20260509041019 | 41 | 144 | 0.0 | 0.0 | 0.00 | 0.04 | 0.00 | 62 | 1011.5 |
| 20260509040517 | 41 | 144 | 0.0 | 0.0 | 0.00 | 0.04 | 0.00 | 60 | 1011.5 |
| 20260509040017 | 41 | 144 | 0.0 | 0.0 | 0.00 | 0.04 | 0.00 | 59 | 1011.4 |
| 20260509035516 | 42 | 144 | 0.0 | 1.0 | 0.00 | 0.04 | 0.04 | 57 | 1011.4 |
| 20260509035016 | 42 | 144 | 0.0 | 1.0 | 0.00 | 0.04 | 0.04 | 56 | 1011.4 |
| 20260509034518 | 43 | 124 | 0.0 | 1.0 | 0.00 | 0.04 | 0.04 | 54 | 1011.5 |
| 20260509034017 | 43 | 124 | 0.0 | 1.0 | 0.00 | 0.04 | 0.04 | 53 | 1011.5 |
| 20260509033516 | 43 | 124 | 0.0 | 1.0 | 0.00 | 0.04 | 0.04 | 55 | 1011.5 |
| 20260509033016 | 42 | 124 | 0.0 | 0.0 | 0.00 | 0.04 | 0.04 | 56 | 1011.6 |
| 20260509032520 | 42 | 136 | 0.0 | 1.0 | 0.00 | 0.04 | 0.04 | 57 | 1011.6 |
| 20260509032017 | 42 | 133 | 0.0 | 1.0 | 0.00 | 0.04 | 0.04 | 57 | 1011.7 |
| 20260509031518 | 42 | 134 | 0.0 | 0.0 | 0.00 | 0.04 | 0.04 | 56 | 1011.6 |
| 20260509031015 | 42 | 134 | 0.0 | 1.0 | 0.00 | 0.04 | 0.04 | 56 | 1011.6 |
| 20260509030515 | 41 | 134 | 0.0 | 1.0 | 0.00 | 0.04 | 0.04 | 58 | 1011.6 |
| 20260509030015 | 41 | 137 | 0.0 | 1.0 | 0.00 | 0.04 | 0.04 | 58 | 1011.6 |
| 20260509025514 | 41 | 122 | 0.0 | 1.0 | 0.00 | 0.04 | 0.04 | 59 | 1011.7 |
| 20260509025014 | 40 | 122 | 0.0 | 1.0 | 0.00 | 0.04 | 0.04 | 60 | 1011.7 |
| 20260509024516 | 40 | 191 | 0.0 | 0.0 | 0.00 | 0.04 | 0.04 | 60 | 1011.7 |
| 20260509024014 | 40 | 191 | 0.0 | 0.0 | 0.00 | 0.04 | 0.04 | 61 | 1011.8 |
| 20260509023515 | 40 | 191 | 0.0 | 0.0 | 0.00 | 0.04 | 0.04 | 61 | 1011.8 |
| 20260509023014 | 40 | 191 | 0.0 | 0.0 | 0.00 | 0.04 | 0.04 | 61 | 1011.7 |
| 20260509022514 | 40 | 191 | 0.0 | 0.0 | 0.00 | 0.04 | 0.04 | 61 | 1011.7 |
| 20260509022014 | 40 | 191 | 0.0 | 0.0 | 0.00 | 0.04 | 0.04 | 61 | 1011.8 |
| 20260509021514 | 40 | 191 | 0.0 | 0.0 | 0.00 | 0.04 | 0.04 | 61 | 1011.8 |
| 20260509021012 | 40 | 191 | 0.0 | 0.0 | 0.00 | 0.04 | 0.04 | 60 | 1011.9 |
| 20260509020514 | 41 | 191 | 0.0 | 0.0 | 0.00 | 0.04 | 0.04 | 60 | 1012.1 |
| 20260509020013 | 41 | 191 | 0.0 | 0.0 | 0.00 | 0.04 | 0.04 | 60 | 1012.0 |
| 20260509015513 | 41 | 191 | 0.0 | 0.0 | 0.00 | 0.04 | 0.04 | 59 | 1012.1 |
| 20260509015014 | 41 | 191 | 0.0 | 0.0 | 0.00 | 0.04 | 0.04 | 58 | 1011.9 |
| 20260509014512 | 42 | 191 | 0.0 | 0.0 | 0.00 | 0.04 | 0.04 | 58 | 1012.0 |
| 20260509014012 | 42 | 191 | 0.0 | 0.0 | 0.00 | 0.04 | 0.04 | 58 | 1011.9 |
| 20260509013514 | 42 | 191 | 0.0 | 0.0 | 0.00 | 0.04 | 0.04 | 58 | 1011.8 |
| 20260509013012 | 43 | 302 | 0.0 | 0.0 | 0.00 | 0.04 | 0.04 | 56 | 1011.7 |
| 20260509012513 | 43 | 302 | 0.0 | 0.0 | 0.00 | 0.04 | 0.04 | 54 | 1011.7 |
| 20260509012012 | 44 | 302 | 0.0 | 0.0 | 0.00 | 0.04 | 0.04 | 52 | 1011.5 |
| 20260509011511 | 44 | 302 | 0.0 | 0.0 | 0.00 | 0.04 | 0.04 | 51 | 1011.5 |
| 20260509011011 | 44 | 302 | 0.0 | 0.0 | 0.00 | 0.04 | 0.04 | 51 | 1011.5 |
| 20260509010511 | 44 | 302 | 0.0 | 0.0 | 0.00 | 0.04 | 0.04 | 53 | 1011.4 |
| 20260509010017 | 44 | 302 | 0.0 | 0.0 | 0.00 | 0.04 | 0.04 | 53 | 1011.4 |
| 20260509005511 | 45 | 302 | 0.0 | 0.0 | 0.00 | 0.04 | 0.04 | 48 | 1011.3 |
| 20260509005013 | 45 | 302 | 0.0 | 0.0 | 0.00 | 0.04 | 0.04 | 49 | 1011.3 |
| 20260509004511 | 45 | 302 | 0.0 | 0.0 | 0.00 | 0.04 | 0.04 | 50 | 1011.2 |
| 20260509004011 | 46 | 302 | 0.0 | 0.0 | 0.00 | 0.04 | 0.04 | 49 | 1011.1 |
| 20260509003511 | 46 | 302 | 0.0 | 0.0 | 0.00 | 0.04 | 0.04 | 50 | 1011.1 |
| 20260509003018 | 47 | 302 | 0.0 | 0.0 | 0.00 | 0.04 | 0.04 | 50 | 1011.0 |
| 20260509002510 | 48 | 302 | 0.0 | 0.0 | 0.00 | 0.04 | 0.04 | 49 | 1011.0 |
| 20260509002010 | 48 | 302 | 0.0 | 0.0 | 0.00 | 0.04 | 0.04 | 48 | 1010.9 |
| 20260509001511 | 49 | 302 | 0.0 | 0.0 | 0.00 | 0.04 | 0.04 | 47 | 1010.9 |
| 20260509001010 | 50 | 302 | 0.0 | 0.0 | 0.00 | 0.04 | 0.04 | 46 | 1010.8 |
| 20260509000509 | 51 | 302 | 0.0 | 0.0 | 0.00 | 0.04 | 0.04 | 45 | 1010.9 |
| 20260509000010 | 52 | 302 | 0.0 | 0.0 | 0.00 | 0.04 | 0.04 | 40 | 1010.9 |
| 20260508235511 | 53 | 302 | 0.0 | 0.0 | 0.00 | 0.04 | 0.04 | 43 | 1010.9 |
| 20260508235108 | 53 | 302 | 0.0 | 0.0 | 0.00 | 0.04 | 0.04 | 43 | 1010.8 |
| 20260508234508 | 54 | 302 | 0.0 | 0.0 | 0.00 | 0.04 | 0.04 | 43 | 1010.7 |
| 20260508234008 | 54 | 302 | 0.0 | 0.0 | 0.00 | 0.04 | 0.04 | 41 | 1010.6 |
| 20260508233512 | 55 | 302 | 0.0 | 0.0 | 0.00 | 0.04 | 0.04 | 39 | 1010.6 |
| 20260508233008 | 55 | 302 | 0.0 | 0.0 | 0.00 | 0.04 | 0.04 | 34 | 1010.6 |
| 20260508232507 | 55 | 302 | 0.0 | 0.0 | 0.00 | 0.04 | 0.04 | 36 | 1010.5 |
| 20260508232007 | 55 | 302 | 0.0 | 3.0 | 0.00 | 0.04 | 0.04 | 33 | 1010.6 |
| 20260508231508 | 56 | 302 | 0.0 | 3.0 | 0.00 | 0.04 | 0.04 | 31 | 1010.5 |
| 20260508231006 | 56 | 304 | 0.0 | 2.0 | 0.00 | 0.04 | 0.04 | 30 | 1010.6 |
| 20260508230506 | 57 | 303 | 0.0 | 3.0 | 0.00 | 0.04 | 0.04 | 34 | 1010.6 |
| 20260508230007 | 57 | 295 | 0.0 | 3.0 | 0.00 | 0.04 | 0.04 | 29 | 1010.6 |
| 20260508225508 | 56 | 317 | 0.0 | 2.0 | 0.00 | 0.04 | 0.04 | 32 | 1010.6 |
| 20260508225007 | 56 | 307 | 0.0 | 2.0 | 0.00 | 0.04 | 0.04 | 30 | 1010.7 |
| 20260508224511 | 56 | 307 | 0.0 | 3.0 | 0.00 | 0.04 | 0.04 | 33 | 1010.6 |
| 20260508224005 | 57 | 301 | 0.0 | 3.0 | 0.00 | 0.04 | 0.04 | 30 | 1010.6 |
| 20260508223505 | 56 | 295 | 0.0 | 2.0 | 0.00 | 0.04 | 0.04 | 30 | 1010.6 |
| 20260508223015 | 56 | 300 | 0.0 | 4.0 | 0.00 | 0.04 | 0.04 | 31 | 1010.6 |
| 20260508222505 | 56 | 285 | 2.0 | 4.0 | 0.00 | 0.04 | 0.04 | 32 | 1010.6 |
| 20260508222003 | 56 | 294 | 1.0 | 4.0 | 0.00 | 0.04 | 0.04 | 32 | 1010.6 |
| 20260508221504 | 55 | 266 | 1.0 | 7.0 | 0.00 | 0.04 | 0.04 | 33 | 1010.5 |
| 20260508221006 | 55 | 282 | 3.0 | 7.0 | 0.00 | 0.04 | 0.04 | 31 | 1010.6 |
| 20260508220504 | 56 | 304 | 3.0 | 8.0 | 0.00 | 0.04 | 0.04 | 33 | 1010.6 |
| 20260508220002 | 56 | 308 | 1.0 | 8.0 | 0.00 | 0.04 | 0.04 | 33 | 1010.6 |
| 20260508215502 | 56 | 23 | 1.0 | 8.0 | 0.00 | 0.04 | 0.04 | 30 | 1010.6 |
| 20260508215002 | 57 | 324 | 1.0 | 7.0 | 0.00 | 0.04 | 0.04 | 34 | 1010.7 |
| 20260508214502 | 56 | 348 | 3.0 | 7.0 | 0.00 | 0.04 | 0.04 | 33 | 1010.7 |
| 20260508214100 | 56 | 302 | 0.0 | 4.0 | 0.00 | 0.04 | 0.04 | 35 | 1010.8 |
| 20260508213600 | 56 | 63 | 1.0 | 4.0 | 0.00 | 0.04 | 0.04 | 30 | 1010.8 |
| 20260508213100 | 56 | 274 | 1.0 | 4.0 | 0.00 | 0.04 | 0.04 | 31 | 1010.8 |
| 20260508212559 | 55 | 221 | 0.0 | 7.0 | 0.00 | 0.04 | 0.04 | 32 | 1010.7 |
| 20260508212059 | 55 | 281 | 2.0 | 7.0 | 0.00 | 0.04 | 0.04 | 31 | 1010.8 |
| 20260508211601 | 55 | 250 | 2.0 | 7.0 | 0.00 | 0.04 | 0.04 | 34 | 1010.9 |
| 20260508211058 | 55 | 311 | 3.0 | 7.0 | 0.00 | 0.04 | 0.04 | 33 | 1010.9 |
| 20260508210558 | 55 | 321 | 3.0 | 6.0 | 0.00 | 0.04 | 0.04 | 34 | 1010.8 |
| 20260508210100 | 56 | 274 | 2.0 | 7.0 | 0.00 | 0.04 | 0.04 | 33 | 1010.9 |
| 20260508205557 | 56 | 280 | 3.0 | 7.0 | 0.00 | 0.04 | 0.04 | 31 | 1010.8 |
| 20260508205056 | 56 | 319 | 0.0 | 4.0 | 0.00 | 0.04 | 0.04 | 34 | 1010.9 |
| 20260508204601 | 56 | 337 | 0.0 | 5.0 | 0.00 | 0.04 | 0.04 | 35 | 1011.0 |
| 20260508204054 | 55 | 327 | 0.0 | 7.0 | 0.00 | 0.04 | 0.04 | 38 | 1011.0 |
| 20260508203553 | 55 | 264 | 1.0 | 5.0 | 0.00 | 0.04 | 0.04 | 37 | 1011.2 |
| 20260508203059 | 55 | 284 | 2.0 | 11.0 | 0.00 | 0.04 | 0.04 | 34 | 1011.3 |
| 20260508202552 | 55 | 22 | 2.0 | 11.0 | 0.00 | 0.04 | 0.04 | 38 | 1011.3 |
| 20260508202052 | 54 | 248 | 4.0 | 9.0 | 0.00 | 0.04 | 0.04 | 38 | 1011.5 |
| 20260508201553 | 54 | 288 | 2.0 | 11.0 | 0.00 | 0.04 | 0.04 | 34 | 1011.4 |
| 20260508201049 | 54 | 319 | 3.0 | 12.0 | 0.00 | 0.04 | 0.04 | 40 | 1011.6 |
| 20260508200549 | 54 | 333 | 6.0 | 10.0 | 0.00 | 0.04 | 0.04 | 39 | 1011.7 |
| 20260508200049 | 54 | 331 | 4.0 | 10.0 | 0.00 | 0.04 | 0.04 | 36 | 1011.8 |
| 20260508195548 | 53 | 316 | 4.0 | 9.0 | 0.00 | 0.04 | 0.04 | 37 | 1011.8 |
| 20260508195047 | 52 | 299 | 4.0 | 13.0 | 0.00 | 0.04 | 0.04 | 36 | 1011.8 |
| 20260508194554 | 53 | 255 | 6.0 | 13.0 | 0.00 | 0.04 | 0.04 | 37 | 1011.9 |
| 20260508194046 | 53 | 255 | 2.0 | 8.0 | 0.00 | 0.04 | 0.04 | 41 | 1011.9 |
| 20260508193546 | 53 | 270 | 1.0 | 7.0 | 0.00 | 0.04 | 0.04 | 36 | 1012.0 |
| 20260508193102 | 53 | 297 | 1.0 | 10.0 | 0.00 | 0.04 | 0.04 | 40 | 1012.1 |
| 20260508192546 | 53 | 307 | 5.0 | 10.0 | 0.00 | 0.04 | 0.04 | 43 | 1012.1 |
| 20260508192046 | 53 | 297 | 5.0 | 9.0 | 0.00 | 0.04 | 0.04 | 39 | 1012.2 |
| 20260508191546 | 52 | 321 | 3.0 | 11.0 | 0.00 | 0.04 | 0.04 | 40 | 1012.2 |
| 20260508191045 | 52 | 317 | 3.0 | 12.0 | 0.00 | 0.04 | 0.04 | 43 | 1012.2 |
| 20260508190545 | 51 | 306 | 7.0 | 12.0 | 0.00 | 0.04 | 0.04 | 39 | 1012.2 |
| 20260508190045 | 51 | 255 | 3.0 | 9.0 | 0.00 | 0.04 | 0.04 | 41 | 1012.2 |
| 20260508185543 | 52 | 243 | 5.0 | 12.0 | 0.00 | 0.04 | 0.04 | 41 | 1012.1 |
| 20260508185043 | 52 | 279 | 5.0 | 9.0 | 0.00 | 0.04 | 0.04 | 40 | 1012.1 |
| 20260508184553 | 53 | 30 | 2.0 | 8.0 | 0.00 | 0.04 | 0.04 | 45 | 1012.1 |
| 20260508184041 | 52 | 302 | 3.0 | 9.0 | 0.00 | 0.04 | 0.04 | 44 | 1012.1 |
| 20260508183540 | 51 | 296 | 4.0 | 13.0 | 0.00 | 0.04 | 0.04 | 41 | 1012.1 |
| 20260508183041 | 51 | 255 | 7.0 | 13.0 | 0.00 | 0.04 | 0.04 | 42 | 1012.2 |
| 20260508182540 | 51 | 288 | 5.0 | 12.0 | 0.00 | 0.04 | 0.04 | 44 | 1012.3 |
| 20260508182039 | 51 | 272 | 7.0 | 12.0 | 0.00 | 0.04 | 0.04 | 42 | 1012.3 |
| 20260508181544 | 50 | 295 | 2.0 | 8.0 | 0.00 | 0.04 | 0.04 | 44 | 1012.4 |
| 20260508181038 | 51 | 300 | 3.0 | 11.0 | 0.00 | 0.04 | 0.04 | 47 | 1012.4 |
| 20260508180537 | 50 | 275 | 5.0 | 11.0 | 0.00 | 0.04 | 0.04 | 46 | 1012.4 |
| 20260508180040 | 50 | 264 | 6.0 | 10.0 | 0.00 | 0.04 | 0.04 | 47 | 1012.5 |
| 20260508175537 | 50 | 249 | 3.0 | 10.0 | 0.00 | 0.04 | 0.04 | 44 | 1012.5 |
| 20260508175038 | 50 | 287 | 5.0 | 10.0 | 0.00 | 0.04 | 0.04 | 50 | 1012.6 |
| 20260508174537 | 50 | 272 | 3.0 | 16.0 | 0.00 | 0.04 | 0.04 | 45 | 1012.7 |
| 20260508174034 | 50 | 268 | 5.0 | 12.0 | 0.00 | 0.04 | 0.04 | 49 | 1012.7 |
| 20260508173535 | 49 | 293 | 5.0 | 15.0 | 0.00 | 0.04 | 0.04 | 48 | 1012.7 |
| 20260508173033 | 49 | 259 | 5.0 | 15.0 | 0.00 | 0.04 | 0.04 | 52 | 1012.8 |
| 20260508172533 | 48 | 287 | 4.0 | 13.0 | 0.00 | 0.04 | 0.04 | 49 | 1012.8 |
| 20260508172036 | 49 | 258 | 5.0 | 13.0 | 0.00 | 0.04 | 0.04 | 49 | 1012.9 |
| 20260508171540 | 48 | 307 | 4.0 | 10.0 | 0.00 | 0.04 | 0.04 | 52 | 1012.9 |
| 20260508171030 | 49 | 280 | 3.0 | 10.0 | 0.00 | 0.04 | 0.04 | 52 | 1013.0 |
| 20260508170529 | 48 | 242 | 4.0 | 9.0 | 0.00 | 0.04 | 0.04 | 52 | 1013.0 |
| 20260508170030 | 47 | 288 | 2.0 | 8.0 | 0.00 | 0.04 | 0.04 | 56 | 1013.0 |
| 20260508165529 | 47 | 233 | 4.0 | 8.0 | 0.00 | 0.04 | 0.04 | 54 | 1013.1 |
| 20260508165028 | 47 | 220 | 2.0 | 7.0 | 0.00 | 0.04 | 0.04 | 54 | 1013.1 |
| 20260508164528 | 47 | 272 | 3.0 | 8.0 | 0.00 | 0.04 | 0.04 | 57 | 1013.1 |
| 20260508164031 | 47 | 300 | 4.0 | 9.0 | 0.00 | 0.04 | 0.04 | 55 | 1013.1 |
| 20260508163528 | 47 | 257 | 4.0 | 9.0 | 0.00 | 0.04 | 0.04 | 55 | 1013.3 |
| 20260508163027 | 47 | 276 | 4.0 | 13.0 | 0.00 | 0.04 | 0.04 | 58 | 1013.3 |
| 20260508162527 | 46 | 236 | 8.0 | 13.0 | 0.00 | 0.04 | 0.04 | 55 | 1013.3 |
| 20260508162026 | 47 | 281 | 4.0 | 8.0 | 0.00 | 0.04 | 0.04 | 57 | 1013.3 |
| 20260508161527 | 46 | 255 | 3.0 | 9.0 | 0.00 | 0.04 | 0.04 | 60 | 1013.4 |
| 20260508161023 | 45 | 263 | 4.0 | 10.0 | 0.00 | 0.04 | 0.04 | 58 | 1013.4 |
| 20260508160522 | 45 | 236 | 6.0 | 11.0 | 0.00 | 0.04 | 0.04 | 57 | 1013.4 |
| 20260508160048 | 45 | 245 | 5.0 | 9.0 | 0.00 | 0.04 | 0.04 | 58 | 1013.5 |
| 20260508155524 | 45 | 226 | 6.0 | 9.0 | 0.00 | 0.04 | 0.04 | 59 | 1013.5 |
| 20260508155022 | 44 | 260 | 3.0 | 9.0 | 0.00 | 0.04 | 0.04 | 59 | 1013.5 |
| 20260508154522 | 44 | 236 | 4.0 | 9.0 | 0.00 | 0.04 | 0.04 | 59 | 1013.4 |
| 20260508154023 | 45 | 255 | 3.0 | 8.0 | 0.00 | 0.04 | 0.04 | 61 | 1013.4 |
| 20260508153520 | 44 | 239 | 3.0 | 7.0 | 0.00 | 0.04 | 0.04 | 60 | 1013.4 |
| 20260508153019 | 44 | 229 | 4.0 | 8.0 | 0.00 | 0.04 | 0.04 | 60 | 1013.4 |
| 20260508152522 | 43 | 246 | 3.0 | 8.0 | 0.00 | 0.04 | 0.04 | 61 | 1013.4 |
| 20260508152021 | 43 | 299 | 2.0 | 5.0 | 0.00 | 0.04 | 0.04 | 61 | 1013.4 |
| 20260508151518 | 43 | 309 | 1.0 | 4.0 | 0.00 | 0.04 | 0.04 | 62 | 1013.3 |
| 20260508151017 | 43 | 266 | 2.0 | 5.0 | 0.00 | 0.04 | 0.04 | 64 | 1013.3 |
| 20260508150515 | 42 | 224 | 3.0 | 5.0 | 0.00 | 0.04 | 0.04 | 63 | 1013.4 |
| 20260508150019 | 41 | 263 | 2.0 | 5.0 | 0.00 | 0.04 | 0.04 | 63 | 1013.3 |
| 20260508145515 | 41 | 269 | 1.0 | 4.0 | 0.00 | 0.04 | 0.04 | 63 | 1013.4 |
| 20260508145017 | 41 | 210 | 2.0 | 4.0 | 0.00 | 0.04 | 0.04 | 64 | 1013.4 |
| 20260508144514 | 41 | 262 | 1.0 | 4.0 | 0.00 | 0.04 | 0.04 | 64 | 1013.4 |
| 20260508144014 | 40 | 264 | 2.0 | 5.0 | 0.00 | 0.04 | 0.04 | 65 | 1013.4 |
| 20260508143516 | 40 | 261 | 2.0 | 6.0 | 0.00 | 0.04 | 0.04 | 65 | 1013.3 |
| 20260508143013 | 40 | 240 | 3.0 | 6.0 | 0.01 | 0.04 | 0.04 | 65 | 1013.4 |
| 20260508142517 | 40 | 258 | 3.0 | 6.0 | 0.01 | 0.04 | 0.04 | 65 | 1013.4 |
| 20260508142013 | 40 | 264 | 3.0 | 5.0 | 0.01 | 0.04 | 0.04 | 65 | 1013.5 |
| 20260508141516 | 40 | 288 | 2.0 | 4.0 | 0.01 | 0.04 | 0.04 | 66 | 1013.2 |
| 20260508141012 | 39 | 273 | 1.0 | 4.0 | 0.01 | 0.04 | 0.04 | 66 | 1013.2 |
| 20260508140513 | 39 | 245 | 1.0 | 4.0 | 0.02 | 0.04 | 0.04 | 65 | 1013.1 |
| 20260508140018 | 39 | 167 | 1.0 | 7.0 | 0.02 | 0.04 | 0.04 | 67 | 1013.1 |
| 20260508135516 | 39 | 237 | 3.0 | 7.0 | 0.02 | 0.04 | 0.04 | 66 | 1013.2 |
| 20260508135013 | 39 | 225 | 2.0 | 7.0 | 0.02 | 0.04 | 0.04 | 66 | 1013.4 |
| 20260508134527 | 39 | 266 | 2.0 | 6.0 | 0.02 | 0.04 | 0.04 | 66 | 1013.3 |
| 20260508134014 | 39 | 245 | 3.0 | 6.0 | 0.03 | 0.04 | 0.04 | 66 | 1013.3 |
| 20260508133510 | 39 | 243 | 3.0 | 6.0 | 0.03 | 0.04 | 0.04 | 66 | 1013.4 |
| 20260508133015 | 39 | 275 | 2.0 | 5.0 | 0.03 | 0.03 | 0.03 | 66 | 1013.3 |
| 20260508132510 | 39 | 286 | 2.0 | 6.0 | 0.03 | 0.03 | 0.03 | 65 | 1013.4 |
| 20260508132009 | 39 | 299 | 2.0 | 6.0 | 0.03 | 0.03 | 0.03 | 66 | 1013.5 |
| 20260508131510 | 39 | 295 | 2.0 | 4.0 | 0.03 | 0.03 | 0.03 | 66 | 1013.5 |
| 20260508131009 | 39 | 282 | 0.0 | 2.0 | 0.03 | 0.03 | 0.03 | 66 | 1013.4 |
| 20260508130507 | 39 | 276 | 1.0 | 4.0 | 0.02 | 0.02 | 0.02 | 65 | 1013.4 |
| 20260508130007 | 39 | 269 | 1.0 | 4.0 | 0.02 | 0.02 | 0.02 | 65 | 1013.3 |
| 20260508125507 | 39 | 275 | 1.0 | 5.0 | 0.02 | 0.02 | 0.02 | 65 | 1013.3 |
| 20260508125007 | 39 | 241 | 0.0 | 6.0 | 0.02 | 0.02 | 0.02 | 64 | 1013.3 |
| 20260508124510 | 39 | 233 | 1.0 | 8.0 | 0.02 | 0.02 | 0.02 | 64 | 1013.2 |
| 20260508124005 | 39 | 337 | 3.0 | 8.0 | 0.01 | 0.01 | 0.01 | 63 | 1013.3 |
| 20260508123504 | 40 | 316 | 2.0 | 8.0 | 0.01 | 0.01 | 0.01 | 64 | 1013.3 |
| 20260508123004 | 40 | 294 | 3.0 | 8.0 | 0.00 | 0.00 | 0.00 | 63 | 1013.2 |
| 20260508122506 | 40 | 319 | 4.0 | 8.0 | 0.00 | 0.00 | 0.00 | 63 | 1012.9 |
| 20260508122002 | 41 | 355 | 4.0 | 7.0 | 0.00 | 0.00 | 0.00 | 62 | 1012.7 |
| 20260508121504 | 41 | 301 | 2.0 | 6.0 | 0.00 | 0.00 | 0.00 | 61 | 1012.6 |
| 20260508121002 | 41 | 306 | 1.0 | 6.0 | 0.00 | 0.00 | 0.00 | 62 | 1012.6 |
| 20260508120600 | 41 | 284 | 0.0 | 4.0 | 0.00 | 0.00 | 0.00 | 61 | 1012.5 |
| 20260508120100 | 41 | 300 | 0.0 | 5.0 | 0.00 | 0.00 | 0.00 | 61 | 1012.4 |
| 20260508115600 | 41 | 279 | 1.0 | 8.0 | 0.00 | 0.00 | 0.00 | 60 | 1012.3 |
| 20260508115101 | 41 | 274 | 3.0 | 7.0 | 0.00 | 0.00 | 0.00 | 60 | 1012.3 |
| 20260508114559 | 41 | 269 | 2.0 | 6.0 | 0.00 | 0.00 | 0.00 | 61 | 1012.3 |
| 20260508114059 | 41 | 278 | 2.0 | 5.0 | 0.00 | 0.00 | 0.00 | 61 | 1012.2 |
| 20260508113559 | 41 | 263 | 0.0 | 3.0 | 0.00 | 0.00 | 0.00 | 61 | 1012.0 |
| 20260508113107 | 41 | 266 | 1.0 | 4.0 | 0.00 | 0.00 | 0.00 | 61 | 1012.0 |
| 20260508112558 | 41 | 261 | 1.0 | 4.0 | 0.00 | 0.00 | 0.00 | 61 | 1011.9 |
| 20260508112100 | 41 | 224 | 0.0 | 3.0 | 0.00 | 0.00 | 0.00 | 61 | 1011.6 |
| 20260508111604 | 41 | 147 | 0.0 | 5.0 | 0.00 | 0.00 | 0.00 | 61 | 1011.5 |
| 20260508111102 | 41 | 226 | 1.0 | 5.0 | 0.00 | 0.00 | 0.00 | 60 | 1011.6 |
| 20260508110559 | 41 | 217 | 2.0 | 5.0 | 0.00 | 0.00 | 0.00 | 61 | 1011.7 |
| 20260508105558 | 41 | 225 | 2.0 | 5.0 | 0.00 | 0.00 | 0.00 | 61 | 1011.7 |
| 20260508105100 | 41 | 193 | 2.0 | 5.0 | 0.00 | 0.00 | 0.00 | 62 | 1011.8 |
| 20260508104556 | 41 | 213 | 1.0 | 4.0 | 0.00 | 0.00 | 0.00 | 63 | 1011.6 |
| 20260508104056 | 41 | 195 | 2.0 | 4.0 | 0.00 | 0.00 | 0.00 | 62 | 1011.3 |
| 20260508103556 | 41 | 180 | 2.0 | 4.0 | 0.00 | 0.00 | 0.00 | 62 | 1011.3 |
| 20260508103103 | 41 | 163 | 2.0 | 5.0 | 0.00 | 0.00 | 0.00 | 62 | 1011.5 |
| 20260508102555 | 41 | 182 | 2.0 | 5.0 | 0.00 | 0.00 | 0.00 | 62 | 1011.5 |
| 20260508102055 | 41 | 152 | 1.0 | 5.0 | 0.00 | 0.00 | 0.00 | 62 | 1011.6 |
| 20260508101556 | 41 | 214 | 3.0 | 5.0 | 0.00 | 0.00 | 0.00 | 62 | 1011.7 |
| 20260508101055 | 41 | 231 | 2.0 | 5.0 | 0.00 | 0.00 | 0.00 | 63 | 1011.9 |
| 20260508100554 | 41 | 229 | 2.0 | 5.0 | 0.00 | 0.00 | 0.00 | 63 | 1011.9 |
| 20260508100053 | 41 | 210 | 2.0 | 5.0 | 0.00 | 0.00 | 0.00 | 63 | 1011.6 |
| 20260508095553 | 41 | 220 | 1.0 | 6.0 | 0.00 | 0.00 | 0.00 | 63 | 1011.9 |
| 20260508095056 | 40 | 233 | 2.0 | 6.0 | 0.00 | 0.00 | 0.00 | 63 | 1012.1 |
| 20260508094605 | 40 | 220 | 2.0 | 5.0 | 0.00 | 0.00 | 0.00 | 63 | 1012.1 |
| 20260508094052 | 40 | 259 | 2.0 | 6.0 | 0.00 | 0.00 | 0.00 | 63 | 1012.2 |
| 20260508093554 | 40 | 228 | 3.0 | 8.0 | 0.00 | 0.00 | 0.00 | 63 | 1012.1 |
| 20260508093053 | 40 | 193 | 2.0 | 8.0 | 0.00 | 0.00 | 0.00 | 63 | 1012.2 |
| 20260508092551 | 40 | 226 | 2.0 | 7.0 | 0.00 | 0.00 | 0.00 | 64 | 1012.2 |
| 20260508092051 | 40 | 215 | 4.0 | 6.0 | 0.00 | 0.00 | 0.00 | 64 | 1012.2 |
| 20260508091555 | 40 | 229 | 2.0 | 6.0 | 0.00 | 0.00 | 0.00 | 64 | 1012.2 |
| 20260508091051 | 40 | 218 | 3.0 | 6.0 | 0.00 | 0.00 | 0.00 | 65 | 1012.0 |
| 20260508090554 | 40 | 217 | 2.0 | 5.0 | 0.00 | 0.00 | 0.00 | 65 | 1012.0 |
| 20260508090051 | 39 | 237 | 2.0 | 5.0 | 0.00 | 0.00 | 0.00 | 66 | 1012.0 |
| 20260508085550 | 39 | 219 | 2.0 | 5.0 | 0.00 | 0.00 | 0.00 | 66 | 1012.1 |
| 20260508085051 | 39 | 229 | 2.0 | 5.0 | 0.00 | 0.00 | 0.00 | 66 | 1012.2 |
| 20260508084550 | 39 | 208 | 2.0 | 6.0 | 0.00 | 0.00 | 0.00 | 67 | 1012.1 |
| 20260508084051 | 39 | 230 | 2.0 | 6.0 | 0.00 | 0.00 | 0.00 | 67 | 1012.2 |
| 20260508083549 | 38 | 240 | 2.0 | 5.0 | 0.00 | 0.00 | 0.00 | 67 | 1012.2 |
| 20260508083130 | 38 | 207 | 2.0 | 5.0 | 0.00 | 0.00 | 0.00 | 67 | 1012.0 |
| 20260508082548 | 38 | 239 | 1.0 | 4.0 | 0.00 | 0.00 | 0.00 | 67 | 1011.9 |
| 20260508082049 | 38 | 226 | 2.0 | 4.0 | 0.00 | 0.00 | 0.00 | 67 | 1011.9 |
| 20260508081554 | 38 | 199 | 1.0 | 5.0 | 0.00 | 0.00 | 0.00 | 67 | 1011.8 |
| 20260508081047 | 38 | 210 | 2.0 | 5.0 | 0.00 | 0.00 | 0.00 | 67 | 1011.9 |
| 20260508080546 | 39 | 234 | 2.0 | 5.0 | 0.00 | 0.00 | 0.00 | 67 | 1011.8 |
| 20260508080058 | 39 | 204 | 3.0 | 5.0 | 0.00 | 0.00 | 0.00 | 67 | 1011.7 |
| 20260508075547 | 39 | 219 | 2.0 | 5.0 | 0.00 | 0.00 | 0.00 | 67 | 1011.7 |
| 20260508075044 | 39 | 184 | 2.0 | 8.0 | 0.00 | 0.00 | 0.00 | 67 | 1012.0 |
| 20260508074544 | 39 | 222 | 3.0 | 8.0 | 0.00 | 0.00 | 0.00 | 67 | 1011.9 |
| 20260508074044 | 39 | 255 | 2.0 | 5.0 | 0.00 | 0.00 | 0.00 | 67 | 1011.8 |
| 20260508073544 | 39 | 275 | 1.0 | 5.0 | 0.00 | 0.00 | 0.00 | 67 | 1011.7 |
| 20260508073047 | 39 | 243 | 1.0 | 4.0 | 0.00 | 0.00 | 0.00 | 67 | 1011.8 |
| 20260508072544 | 39 | 246 | 1.0 | 4.0 | 0.00 | 0.00 | 0.00 | 67 | 1011.8 |
| 20260508072042 | 39 | 214 | 2.0 | 6.0 | 0.00 | 0.00 | 0.00 | 67 | 1011.8 |
| 20260508071544 | 39 | 259 | 3.0 | 6.0 | 0.00 | 0.00 | 0.00 | 67 | 1012.0 |
| 20260508071040 | 39 | 238 | 3.0 | 6.0 | 0.00 | 0.00 | 0.00 | 67 | 1012.0 |
| 20260508070539 | 39 | 248 | 3.0 | 5.0 | 0.00 | 0.00 | 0.00 | 67 | 1012.0 |
| 20260508070039 | 39 | 198 | 0.0 | 5.0 | 0.00 | 0.00 | 0.00 | 67 | 1012.0 |
| 20260508065541 | 39 | 205 | 2.0 | 5.0 | 0.00 | 0.00 | 0.00 | 66 | 1011.9 |
| 20260508065038 | 39 | 230 | 2.0 | 5.0 | 0.00 | 0.00 | 0.00 | 67 | 1011.9 |
| 20260508064555 | 39 | 236 | 1.0 | 5.0 | 0.00 | 0.00 | 0.00 | 66 | 1012.1 |
| 20260508064036 | 39 | 281 | 0.0 | 2.0 | 0.00 | 0.00 | 0.00 | 66 | 1012.2 |
| 20260508063536 | 39 | 264 | 0.0 | 2.0 | 0.00 | 0.00 | 0.00 | 66 | 1012.0 |
| 20260508063038 | 39 | 268 | 0.0 | 5.0 | 0.00 | 0.00 | 0.00 | 66 | 1011.9 |
| 20260508062535 | 40 | 278 | 1.0 | 4.0 | 0.00 | 0.00 | 0.00 | 65 | 1012.1 |
| 20260508062033 | 40 | 255 | 1.0 | 6.0 | 0.00 | 0.00 | 0.00 | 65 | 1012.1 |
| 20260508061537 | 40 | 274 | 1.0 | 5.0 | 0.00 | 0.00 | 0.00 | 65 | 1012.3 |
| 20260508061034 | 40 | 278 | 2.0 | 6.0 | 0.00 | 0.00 | 0.00 | 66 | 1012.3 |
| 20260508060533 | 40 | 267 | 2.0 | 6.0 | 0.00 | 0.00 | 0.00 | 66 | 1012.3 |
| 20260508060031 | 40 | 255 | 3.0 | 6.0 | 0.00 | 0.00 | 0.00 | 66 | 1012.3 |
| 20260508055531 | 41 | 287 | 0.0 | 5.0 | 0.00 | 0.00 | 0.00 | 66 | 1012.3 |
| 20260508055031 | 41 | 269 | 2.0 | 6.0 | 0.00 | 0.00 | 0.00 | 66 | 1012.2 |
| 20260508054531 | 41 | 276 | 1.0 | 6.0 | 0.00 | 0.00 | 0.00 | 66 | 1012.3 |